Ukiah, CA

7:23 AM PDT on June 24, 2017 (GMT -0700)
Ukiah Municipal

Weather History for KUKI - August, 2013

Change the Weather History Date:

Wednesday, August 28, 2013

  Actual Average Record
Temperature  
Mean Temperature 73 °F 71 °F  
Max Temperature 91 °F 90 °F 108 °F (2008)
Min Temperature 54 °F 53 °F 40 °F (1921)
Degree Days  
Heating Degree Days 0 0  
Month to date heating degree days 0  
Since 1 June heating degree days 33  
Since 1 July heating degree days 1  
Cooling Degree Days 8 7  
Month to date cooling degree days 221  
Year to date cooling degree days 664  
Since 1 June cooling degree days 612  
Growing Degree Days 22 (Base 50)    
Moisture  
Dew Point 55 °F    
Average Humidity 58    
Maximum Humidity 86    
Minimum Humidity 29    
Precipitation  
Precipitation 0.00 in 0.01 in 0.50 in (1954)
Month to date precipitation T 0.07  
Year to date precipitation 5.61 23.49  
Since 1 July precipitation 0.03  
Snow  
Snow 0.00 in - - ()
Month to date snowfall 0.0  
Since 1 June snowfall 0.0  
Since 1 July snowfall 0.0  
Snow Depth -    
Sea Level Pressure  
Sea Level Pressure 29.87 in    
Wind  
Wind Speed 1 mph (NNE)    
Max Wind Speed 13 mph    
Max Gust Speed 17 mph    
Visibility 10 miles    
Events      
T = Trace of Precipitation, MM = Missing Value Source: NWS Daily Summary

Daily Weather History Graph

Daily Weather History Graph

Search for Another Location

Airport or City:

Trip Planner

Search our weather history database for the weather conditions in past years. The results will help you decide how hot, cold, wet, or windy it might be!

Date:

Astronomy

Aug. 28, 2013 Rise Set
Actual Time 6:38 AM PDT 7:48 PM PDT
Civil Twilight 6:10 AM PDT 8:16 PM PDT
Nautical Twilight 5:37 AM PDT 8:49 PM PDT
Astronomical Twilight 5:03 AM PDT 9:23 PM PDT
Moon No Moon Rise 2:30 PM PDT (8/28)
Length of Visible Light 14h 05m
Length of Day
13h 10m
Last Quarter, 46% of the Moon is Illuminated
Aug 28
Last Quarter
Sep 5
New
Sep 12
First Quarter
Sep 19
Full
Sep 26
Last Quarter

Hourly Weather History & Observations

Time (PDT) Temp. Heat Index Dew Point Humidity Pressure Visibility Wind Dir Wind Speed Gust Speed Precip Events Conditions
12:56 AM 62.1 °F - 53.1 °F 72% 29.86 in 10.0 mi Calm Calm - N/A   Clear
1:56 AM 60.1 °F - 53.1 °F 78% 29.85 in 10.0 mi Calm Calm - N/A   Clear
2:56 AM 57.0 °F - 51.1 °F 81% 29.85 in 10.0 mi Calm Calm - N/A   Clear
3:56 AM 55.9 °F - 50.0 °F 80% 29.85 in 10.0 mi Calm Calm - N/A   Clear
4:56 AM 55.9 °F - 50.0 °F 80% 29.85 in 10.0 mi Calm Calm - N/A   Clear
5:56 AM 55.9 °F - 51.1 °F 84% 29.86 in 10.0 mi Calm Calm - N/A   Clear
6:56 AM 57.0 °F - 52.0 °F 83% 29.88 in 10.0 mi Calm Calm - N/A   Clear
7:56 AM 57.9 °F - 51.1 °F 78% 29.89 in 10.0 mi Calm Calm - N/A   Clear
8:56 AM 64.0 °F - 54.0 °F 70% 29.90 in 10.0 mi Calm Calm - N/A   Clear
9:56 AM 70.0 °F - 53.1 °F 55% 29.91 in 10.0 mi Calm Calm - N/A   Clear
10:56 AM 75.0 °F - 53.1 °F 46% 29.90 in 10.0 mi Calm Calm - N/A   Clear
11:56 AM 80.1 °F 80.0 °F 54.0 °F 40% 29.89 in 10.0 mi Calm Calm - N/A   Clear
12:56 PM 84.0 °F 82.6 °F 54.0 °F 35% 29.87 in 10.0 mi East 3.5 mph - N/A   Clear
1:56 PM 87.1 °F 85.3 °F 55.0 °F 33% 29.86 in 10.0 mi ESE 5.8 mph - N/A   Clear
2:56 PM 90.0 °F 87.5 °F 53.1 °F 28% 29.85 in 10.0 mi Variable 3.5 mph - N/A   Clear
3:56 PM 89.1 °F 88.0 °F 57.9 °F 35% 29.84 in 10.0 mi NNW 9.2 mph - N/A   Clear
4:56 PM 89.1 °F 88.2 °F 59.0 °F 36% 29.83 in 10.0 mi North 10.4 mph - N/A   Partly Cloudy
5:56 PM 84.9 °F 84.4 °F 59.0 °F 41% 29.83 in 10.0 mi WNW 8.1 mph - N/A   Clear
6:56 PM 82.0 °F 82.1 °F 59.0 °F 45% 29.84 in 10.0 mi ENE 5.8 mph - N/A   Clear
7:56 PM 75.9 °F - 59.0 °F 56% 29.86 in 10.0 mi NNE 6.9 mph - N/A   Clear
8:56 PM 73.0 °F - 59.0 °F 61% 29.89 in 10.0 mi North 4.6 mph - N/A   Clear
9:56 PM 71.1 °F - 59.0 °F 66% 29.90 in 10.0 mi North 3.5 mph - N/A   Clear
10:56 PM 66.9 °F - 59.0 °F 76% 29.91 in 10.0 mi Calm Calm - N/A   Clear
11:56 PM 66.0 °F - 57.9 °F 75% 29.92 in 10.0 mi Calm Calm - N/A   Clear